EUTE 1-F5 (ECS 5)

导读

EUTE 1-F5又名ECS 5,由欧洲通信卫星组织(EUTELSAT)开发,1988年7月21日发射入轨。作为欧洲通信卫星系列的第五颗卫星,它主要承担欧洲及周边区域的通信广播服务,为跨区域电视传输、政府通信和商业专网提供卫星转发 capacity。该卫星定轨地球静止轨道,服役期间显著提升了欧洲卫星通信覆盖能力,推动了早期欧洲洲际通信网络发展,是欧洲通信卫星体系发展中的重要一环。

Basic Information
目录编号:
19331
目录名称:
EUTE 1-F5 (ECS 5)
国际标识:
1988-063B
轨道中心:
EARTH
卫星名称:
EUTE 1-F5 (ECS 5)
卫星全名:
--
卫星状态:
在轨 (已飞行13845 天)
发射日期:
1988-07-21 UTC
国别 :
(EUTE)
星等 :
--
Orbit Information
数据来源 国际轨道数据 AOE轨道数据
星历时间 2026-06-17T00:06:03+0800
1天前
查看轨道信息
2026-06-17T04:00:00+0800
22小时前
查看轨道信息
半长轴 42765.443km 42765.356km
偏心率 0.0010701 0.0010513
轨道倾角 14.553° 14.553°
近地点辐角 158.657° 157.670°
升交点赤经 345.972° 345.972°
平近点角 136.774° 195.175°
近地点 36341.542km 36342.259km
远地点 36433.07km 36432.179km
周期 1466.896分钟 1466.891分钟
每日圈数 0.981665 0.981668
Detailed Information
使用方式:
暂无
2D Orbit Map
3D Orbit Map
Orbit Altitude Analysis Chart
Orbit Inclination Analysis Chart
Orbit Comprehensive Analysis Chart
View Comprehensive Chart